STARLINK-2131, 47728

Orbit data source: Space-Track

STARLINK-2131, 47728 is a payload satellite owned by SpaceX/Seattle (US) in LEO that was launched on Thu, 04 Mar 2021 UTC via an FALCON 9 launch vehicle from the Air Force Eastern Test Range (AFETR). Payload-class satellites include a variety of spacecraft equipped with specific instruments for various scientific and technological missions. These include communications satellites like Starlink; space stations such as the ISS; scientific satellites like the Hubble; Earth observation satellites from companies like Planet Labs, Umbra, and HawkEye 360; GPS; miniature CubeSats for education and research; and military/defense satellites.

Loading next visibility...
Identifier
47728, 2021-017G
Orbit
LEO
Country
Flag of USUS
Related business
Manufacturer
SpaceX/Seattle
Mission
Partially operational Commercial Communications
Bus & Motor
STARLINK, Unknown motor
Mass
260 kg wet, ~248 kg dry
Launch date (UTC)
2021-03-04 (5 years ago)
Launch vehicle
FALCON 9
Launch site
Air Force Eastern Test Range (AFETR)
Object type
Payload
Rocket body
Debris
Shape & HBR
Box + 1 Pan, 10.1 m
Radar Cross Section
13.562 m², Large (>1 m²)

Expand to show TLE details & history
Last TLE update: 12 hours ago

TLE from 12 hours ago
0 STARLINK-2131
1 47728U 21017G   26236.00002315  .00084189  00000-0  45978-3 0  9995
2 47728  53.0649 118.3342 0003567 155.5984   9.7880 15.79186112  5847
Epoch: 2026-08-24T00:00Z
TLE epoch observation values (Epoch: 2026-08-24T00:00:02.000Z)
Latitude
11.62152°
Longitude
-42.80594°
Altitude
330.527 km
Speed
7.714 km/s
True Right ascension
19h 17m 57s
True Declination
11° 32' 58"
Sunlit
Object was in full shadow at epoch
Visualization orbit readout
Latitude
Unknown
Longitude
Unknown
Altitude
Unknown
Speed
Unknown
Apparent Right ascension
Unknown
Apparent Declination
Unknown
Sunlit
N/A
Visualization observer readout
Local Sidereal Time
02:49:07
Azimuth
Unknown
Elevation
Unknown
Doppler factor
Unknown
Orbital elements
Apogee altitude
335.417 km
Perigee altitude
330.629 km
Semi-major axis
6,711.16 km
Eccentricity
0.00036
Inclination
53.0649°
RAAN
118.3342°
Arg. of periapsis
155.5984°
True anomaly
9.79495°
Mean anomaly
9.788°
Eccentric anomaly
9.79148°
Mean motion
3.94772 °/min
Orbital period
91.19 mins
BSTAR
0.00045978
Loading maneuver chart data...
Computing Atmospheric mass density...

Documentation

Showing up to 5 results
|